Тамдыбулак

Uzbekistan     40˚45′00″N   64˚37′01″E
temp.,
°C
wind,
m/s
gust,
m/s
humid.,
%
clouds,
%
prec.,
mm/h
press.,
hPa
HPBL,
m
28 november, sat
sat2823:00+4˚wnw7117699 0.1 1029571
02:00+3˚wnw61180100 0.1 1034551
05:00+3˚w487588 0.1 1038506
08:00−1˚sw56930 0.0 104296
11:00+4˚wsw56661 0.0 1043721
14:00+7˚wsw454624 0.0 10421259
17:00+2˚wnw116012 0.0 104122
20:00+1˚nne45520 0.0 104236
29 november, sun
sun2923:00ne69640 0.0 1041134
02:00−1˚ne68740 0.0 1040111
05:00−1˚ne712800 0.0 1040186
08:00−1˚ne916810 0.0 1039328
11:00+4˚ne1115560 0.0 1039750
14:00+6˚ne12154432 0.0 1037781
17:00+3˚ne11164547 0.0 1036637
20:00+1˚ne11184749 0.0 1036482
30 november, mon
mon3023:00ne10184724 0.0 1036466
02:00−1˚ne916500 0.0 1034389
05:00−2˚ne9155436 0.0 1033334
08:00−2˚ne10165399 0.0 1032374
11:00+2˚ne111538100 0.0 1031554
14:00+5˚ne111533100 0.0 1028567
17:00+3˚ne91438100 0.0 1027465
20:00+2˚ne91543100 0.0 1027417
1 december, tue
tue123:00+1˚ne71248100 0.0 1026361
02:00+1˚nne5853100 0.0 1026257
05:00nne6858100 0.1 1025304
08:00ne5756100 0.1 1025264
11:00+3˚nne454798 0.1 1027323
14:00+5˚nnw334143 0.0 1026434
17:00+4˚ene234644 0.0 102627
20:00e236821 0.0 102822
2 december, wed
wed223:00−1˚ne237924 0.0 102822
02:00−2˚ne238028 0.0 102822
05:00−2˚ne237947 0.0 102821
08:00−2˚ne348112 0.0 102922
11:00+5˚ne335412 0.0 1029293
14:00+9˚nne224544 0.0 1027492
17:00+6˚ne345562 0.0 102623
20:00+2˚ne457076 0.0 102733